Current Weather Conditions: station 63114

sailwx.info

Wind from 310 at 29 knots

Air temperature 5.6° C
Visibility: greater than 27.0 NM
Dewpoint -2.8° C

Last reported at 2014-Dec-20 08:00 UTC.
Time now 2014-Dec-20 10:25 UTC

Location: N 61°18' E 001°42'.
View on Google Maps.

See reports from other nearby stations

  
Tides and Currents Weather Stations Pressure Air Temp Water Temp Dewpoint Dewpoint Depression Visibility Wind Speed Wind Dir Waves Ship Positions
date/time (UTC)wind fromknots sea level pressurealtimeterstation pressurevisibilityair tempwater tempwave heightnotes
2014-Dec-20 08:00 310 29 27.0 5.6
2014-Dec-20 07:00 310 29 10.8 4.9
2014-Dec-20 06:00 320 30 10.8 3.8
2014-Dec-20 05:00 310 22 10.8 4.2
2014-Dec-20 04:00 310 20 27.0 5.2
2014-Dec-20 03:00 310 14 27.0 5.2
2014-Dec-20 02:00 320 15 27.0 5.2
2014-Dec-20 01:00 320 17 27.0 5.1
2014-Dec-20 00:00 310 25 10.8 4.5
2014-Dec-19 23:00 270 26 10.8 5.0
2014-Dec-19 22:00 280 18 27.0 5.1
2014-Dec-19 21:00 280 13 27.0 3.5
2014-Dec-19 20:00 290 24 10.8 3.9
2014-Dec-19 19:00 280 18 27.0 5.0
2014-Dec-19 18:00 290 23 10.8 5.3
2014-Dec-19 17:00 280 19 27.0 4.1
2014-Dec-19 16:00 300 23 10.8 5.4
2014-Dec-19 15:00 240 12 10.8 5.3
2014-Dec-19 14:00 230 19 10.8 5.2
2014-Dec-19 13:00 260 13 27.0 5.6
2014-Dec-19 12:00 280 19 27.0 5.2
2014-Dec-19 11:00 270 20 27.0 4.6
2014-Dec-19 10:00 270 15 10.8 4.8
2014-Dec-19 09:00 250 12 10.8 3.6
2014-Dec-19 08:00 260 23 27.0 4.8
2014-Dec-19 07:00 270 20 27.0 3.9
2014-Dec-19 06:00 250 17 10.8 4.9
2014-Dec-19 05:00 260 9 10.8 3.6
2014-Dec-19 04:00 240 26 10.8 5.8
2014-Dec-19 03:00 240 26 10.8 5.5
2014-Dec-19 02:00 240 25 10.8 5.7
2014-Dec-19 01:00 230 30 10.8 5.7
2014-Dec-19 00:00 250 18 10.8 4.1
2014-Dec-18 23:00 240 26 27.0 6.0
2014-Dec-18 22:00 240 22 27.0 5.1
2014-Dec-18 21:00 250 27 10.8 3.8
2014-Dec-18 20:00 240 22 5.4 4.7
2014-Dec-18 19:00 230 15 27.0 5.3
2014-Dec-18 18:00 230 17 10.8 4.9
2014-Dec-18 17:00 240 19 27.0 5.6
2014-Dec-18 16:00 240 22 27.0 6.4
2014-Dec-18 15:00 230 19 27.0 6.2
2014-Dec-18 14:00 240 20 27.0 6.0
2014-Dec-18 13:00 240 22 27.0 6.0
2014-Dec-18 12:00 270 19 5.4 5.0
2014-Dec-18 11:00 250 17 10.8 5.7
2014-Dec-18 10:00 260 23 10.8 5.3